Weather in Icheon

South Korea     37˚16′51″N   127˚26′49″E
temp.,
°C
wind,
m/s
gust,
m/s
humid.,
%
clouds,
%
prec.,
mm/h
press.,
hPa
HPBL,
m
17 january, sun
sun1700:00−7˚w4740100 0.0 1028681
03:00−8˚wnw593983 0.0 1028668
06:00−9˚wnw494067 0.0 1028651
09:00−8˚wnw484133 0.0 1030655
12:00−5˚wnw36270 0.0 1028930
15:00−3˚w48390 0.0 10251268
18:00−4˚nw236189 0.0 1025232
21:00−5˚s237058 0.0 1025104
18 january, mon
mon1800:00−4˚wsw268574 0.1 1024248
03:00−4˚ssw259675 1.5 1022271
06:00−5˚s348599 0.1 1019117
09:00−3˚ssw488399 0.1 1017340
12:00+3˚w81553100 0.1 10152377
15:00−1˚nw101656100 0.3 10161578
18:00−6˚wnw613390 0.0 10221645
21:00−9˚nw711310 0.0 10261142
19 january, tue
tue1900:00−11˚wnw59330 0.0 1029723
03:00−11˚wnw24320 0.0 1030575
06:00−12˚wsw12370 0.0 1032268
09:00−11˚s11330 0.0 1034361
12:00−8˚sw11260 0.0 1035578
15:00−5˚wnw12210 0.0 1033697
18:00−6˚ese11270 0.0 103356
21:00−7˚ese11310 0.0 103333
20 january, wed
wed2000:00−7˚ne11310 0.0 103326
03:00−8˚ne11330 0.0 103221
06:00−8˚ene11370 0.0 103221
09:00−7˚ene11330 0.0 103255
12:00−2˚e122415 0.0 1030278
15:00+1˚nnw012558 0.0 1028235
18:00−2˚nne1134100 0.0 102821
21:00−2˚ene113695 0.0 102921
21 january, thu
thu2100:00−1˚ene014084 0.0 102921
03:00−1˚ne114692 0.0 102821
06:00ne1154100 0.0 102721
09:00ne1163100 0.0 102622
12:00+3˚ene1165100 0.0 1025191
15:00+5˚ne1167100 0.0 1022199
18:00+3˚n1181100 0.0 102222
21:00+2˚n0188100 0.3 102222